Theta_e
329 331 330 332 332 329 329 330 332 333 333 335 337 338 337 337 336 333 333 334 329 329 331 329 328 328 329 329 327 328 330 330 332 332 333 333 332 333 333 335 336 337 333 326 324 325 324 324 324 324 324 326 327 327 328 330 331 332 332 332 332 332 332 332 332 332 332 332 332 332 332 332 331 331 330 330 331 331 331 331 331 330 329 329 329 328
328 330 331 331 331 329 327 327 329 331 333 336 338 338 338 339 338 335 334 335 330 330 333 332 330 331 331 331 330 330 331 331 331 332 331 331 331 331 331 333 334 333 330 327 326 325 324 325 324 324 324 324 325 326 327 329 330 331 332 332 332 332 332 332 332 332 332 332 332 331 331 331 331 331 331 330 330 330 330 331 330 330 329 329 328 328
329 329 329 329 329 329 328 326 327 329 331 334 335 335 336 337 337 337 336 334 330 330 334 334 332 332 332 332 331 331 331 332 332 332 332 332 332 331 331 331 331 332 331 332 330 325 324 326 325 326 325 325 325 325 326 327 328 330 330 332 332 332 332 332 332 332 331 331 331 331 331 331 330 330 330 331 330 330 329 330 330 329 329 328 328 328
330 329 329 330 329 330 330 329 328 329 331 333 334 334 335 333 335 340 341 336 332 329 330 331 332 331 330 330 330 329 329 329 331 333 333 334 333 332 332 331 330 331 332 333 332 327 324 324 325 326 326 326 326 324 325 326 327 328 329 330 331 332 332 332 332 332 332 331 331 331 331 331 330 330 330 330 330 330 329 330 330 329 329 328 328 327
329 328 329 331 330 330 332 331 331 331 332 333 334 335 334 332 335 340 340 337 334 331 328 328 331 330 329 330 329 327 327 327 327 330 331 331 332 332 331 332 331 331 331 332 333 331 326 322 324 325 325 326 326 326 326 325 326 327 328 328 329 330 331 331 332 332 332 332 331 331 331 331 330 330 329 329 329 330 329 329 330 329 329 328 328 327
328 327 328 330 329 330 332 333 333 333 333 334 333 333 332 333 335 336 335 335 335 336 332 328 332 335 332 331 329 327 327 326 325 326 326 327 327 328 328 330 330 331 332 332 332 331 325 322 323 324 325 325 325 326 327 326 327 327 327 328 328 329 329 330 331 332 332 332 331 331 331 331 330 329 329 329 329 329 329 329 329 329 329 328 328 327
326 325 326 328 329 330 331 333 333 332 334 336 333 332 331 332 333 333 333 335 336 336 333 328 331 335 334 330 329 328 326 326 325 326 326 325 324 324 324 325 327 328 331 332 331 328 325 322 322 323 324 325 325 326 327 326 326 326 326 326 327 327 328 329 330 331 332 332 331 331 331 331 330 329 329 329 329 329 329 329 329 329 329 328 328 327
325 325 326 327 328 330 331 332 332 332 335 335 330 329 331 331 332 334 334 336 336 334 332 328 328 332 333 332 329 328 327 326 324 324 325 324 323 324 323 323 325 327 329 330 330 332 329 323 321 323 324 325 325 326 326 327 326 326 326 325 325 325 326 328 329 330 331 332 331 331 331 331 330 330 329 329 329 329 329 329 329 328 328 328 327 327
324 324 326 325 327 328 329 331 332 332 334 330 326 326 329 329 331 333 333 334 333 331 332 331 327 331 334 333 328 325 325 326 324 323 323 322 322 324 326 325 325 328 329 329 331 335 330 323 322 324 324 325 326 326 326 326 326 325 325 325 325 324 325 326 328 330 330 331 331 331 331 330 330 330 329 329 329 329 329 328 328 328 328 328 327 326
323 322 323 324 325 326 327 329 331 331 331 327 325 326 326 325 328 331 332 332 332 332 333 332 329 331 333 332 328 325 325 326 325 323 322 321 322 323 326 327 327 328 329 330 334 332 322 321 324 324 325 326 326 325 325 324 324 323 324 325 325 324 324 325 327 329 330 330 331 331 330 330 330 330 329 329 329 329 328 328 328 328 328 328 327 326
323 321 321 323 324 324 325 327 328 328 327 326 326 327 325 325 327 330 332 332 333 334 332 331 329 330 332 332 329 328 328 327 325 324 323 322 323 323 326 328 327 327 329 332 339 332 321 321 326 325 325 325 324 323 323 322 321 321 322 323 324 324 324 324 325 327 329 329 330 330 330 330 330 330 329 329 329 329 328 328 328 328 327 327 327 326
324 323 322 324 324 324 325 325 326 326 325 325 325 324 324 327 328 328 330 331 333 335 332 330 329 329 330 331 330 331 330 327 325 325 326 324 325 325 325 325 326 326 330 335 341 335 327 326 324 323 323 323 322 323 322 322 322 321 322 322 322 323 323 323 324 325 327 329 330 330 330 330 329 329 329 329 329 329 328 328 328 327 327 327 327 326
325 323 323 324 322 323 325 326 326 325 325 325 325 322 323 327 329 329 330 331 332 333 332 330 330 330 329 327 326 329 327 325 324 324 325 325 325 327 326 327 329 331 334 338 341 338 337 334 326 322 323 323 323 322 320 321 321 320 320 321 321 321 321 321 321 322 324 326 328 329 330 330 330 329 329 329 329 329 329 328 328 327 327 327 327 326
327 324 323 324 323 322 323 325 326 326 325 325 323 322 324 327 328 329 331 331 330 332 331 330 330 331 331 328 326 325 324 325 325 324 324 324 324 326 328 329 332 334 335 340 343 343 343 336 325 321 323 323 321 318 317 317 317 317 317 317 318 319 319 319 319 319 320 321 324 327 329 330 329 329 329 329 329 329 329 329 328 328 328 327 327 327
328 327 325 324 324 323 321 322 325 325 325 324 323 323 323 326 328 328 330 331 332 333 332 329 331 334 336 334 328 325 326 325 323 322 324 324 324 324 327 330 333 334 334 337 340 342 339 329 321 322 323 321 318 315 315 315 315 315 315 315 315 315 315 316 317 318 318 319 320 323 326 329 329 329 329 329 329 328 329 329 329 329 328 328 328 328
326 328 326 323 323 323 321 321 322 324 325 323 324 323 322 326 328 327 327 330 332 333 332 330 333 336 336 331 324 323 325 323 321 323 324 325 324 323 327 331 334 335 333 335 338 338 333 323 320 323 321 318 317 315 314 315 314 315 315 314 314 313 314 314 314 315 316 317 318 319 322 325 328 329 329 329 328 328 328 328 328 329 329 328 328 328
324 326 325 323 323 322 321 322 321 323 325 323 324 324 323 326 330 327 325 326 328 329 330 331 332 331 328 325 322 321 321 319 321 324 325 328 328 326 330 334 336 336 333 335 339 337 329 322 321 322 319 317 316 315 315 315 314 315 315 315 314 313 314 313 313 313 313 314 315 316 318 320 324 327 329 329 328 328 328 327 328 328 328 329 328 328
325 327 325 323 324 322 320 321 321 322 324 323 323 324 323 325 328 327 326 326 326 326 327 328 327 325 324 326 327 324 321 320 326 329 326 327 329 329 333 336 337 337 336 337 338 335 327 320 319 320 318 316 316 315 316 315 315 315 315 315 315 314 314 314 313 313 313 313 313 313 314 316 318 322 325 327 328 328 328 328 327 327 327 328 328 328
324 326 324 322 324 323 320 322 322 323 324 324 323 322 324 326 326 325 326 326 326 325 326 328 327 325 324 323 322 324 325 325 329 330 327 327 328 328 330 333 333 336 339 337 334 334 327 318 317 317 315 315 315 315 316 316 315 315 316 316 315 314 315 314 314 314 313 313 313 313 313 313 314 316 319 323 326 327 328 328 328 327 327 327 327 328
323 325 325 322 322 322 322 322 324 324 323 324 324 322 324 327 326 325 324 325 326 325 325 327 328 329 326 319 318 321 323 325 325 324 325 325 326 326 326 330 334 337 339 336 332 333 328 318 315 315 314 314 314 313 314 316 316 316 316 316 316 315 315 315 314 314 313 313 313 313 313 313 313 313 315 318 321 325 326 327 327 327 327 327 327 327
323 323 325 323 322 323 323 322 322 323 323 324 324 323 323 325 326 327 325 326 327 326 325 325 325 331 330 320 318 320 319 321 322 321 323 324 323 325 327 331 336 336 335 334 332 333 328 318 315 316 315 315 314 314 313 314 315 317 316 316 316 315 315 315 315 314 314 313 313 313 313 313 313 313 314 314 317 321 324 326 327 327 327 327 327 326
324 323 323 323 323 324 323 321 320 321 321 322 323 322 322 323 324 326 325 326 327 326 328 326 322 328 329 321 319 320 319 320 321 323 325 323 322 325 327 331 334 332 332 331 330 332 328 318 315 316 315 315 314 314 314 313 314 316 316 315 316 316 315 315 315 314 314 314 313 313 313 313 313 312 313 314 315 317 320 323 325 326 327 327 327 327
325 326 325 323 324 323 322 321 321 321 320 321 321 321 321 321 323 324 324 326 326 325 328 328 325 326 327 323 320 320 319 318 320 324 325 321 321 323 325 331 333 330 329 329 330 332 324 316 315 317 315 315 314 314 315 313 313 316 316 314 314 316 316 315 315 314 314 314 313 313 313 313 313 312 312 313 314 315 317 319 323 324 326 326 326 326
324 325 324 323 323 322 321 321 321 320 320 321 322 320 321 321 321 323 325 325 325 325 325 327 326 325 324 324 321 320 320 318 319 322 322 320 322 323 324 328 330 328 327 327 329 329 321 315 316 316 314 314 314 313 314 314 313 315 316 314 313 316 316 315 315 314 314 314 313 313 313 314 314 313 311 312 313 314 315 317 319 322 324 325 326 326
321 322 323 324 324 323 323 322 320 320 321 321 321 320 320 321 321 323 325 325 324 324 324 325 325 324 322 323 322 321 321 320 321 321 320 319 322 325 326 328 329 328 327 326 327 328 325 322 320 315 312 314 313 313 314 313 313 315 315 314 314 315 315 314 314 314 314 313 313 313 313 314 314 314 312 312 311 311 313 314 316 318 321 323 325 325
320 323 323 323 325 325 325 325 323 322 322 321 320 320 320 320 321 321 323 324 323 322 322 324 324 322 320 321 322 320 319 321 323 322 319 319 322 324 325 326 327 327 327 327 328 329 330 329 322 312 311 313 313 313 314 313 314 315 315 314 315 315 314 313 314 314 313 313 313 313 313 314 314 314 313 312 311 311 311 311 313 314 317 320 322 324
320 322 322 322 324 324 324 325 324 323 322 321 320 320 320 320 320 321 323 323 322 322 321 322 323 322 320 319 319 319 320 321 321 319 318 320 322 323 322 322 322 322 325 328 330 332 331 328 321 313 310 312 313 313 313 313 313 314 314 315 315 314 313 313 313 313 313 313 312 313 313 313 313 312 311 311 310 310 309 310 311 313 314 317 319 322
318 319 320 321 321 322 324 325 323 321 321 321 320 319 319 320 320 321 322 321 321 322 322 321 321 322 321 318 318 319 321 321 319 318 318 318 320 321 320 320 319 319 322 324 325 326 323 320 321 316 310 311 312 312 313 313 312 313 314 315 314 313 313 313 313 312 312 312 311 311 311 311 310 310 309 309 308 308 308 308 309 310 312 315 318 320
319 318 318 318 318 319 322 323 321 321 320 320 320 320 319 319 320 320 321 320 320 321 320 319 321 322 320 318 318 317 319 319 318 319 319 317 317 317 317 318 318 318 320 320 319 320 318 319 324 319 309 309 312 311 312 312 312 313 314 314 313 313 313 312 312 311 310 310 309 309 309 308 308 308 308 308 307 307 307 307 307 308 309 312 315 318
320 320 318 318 317 317 320 320 320 320 320 319 319 320 319 319 319 320 320 320 320 320 318 318 320 320 318 318 317 316 318 321 321 320 318 316 316 317 318 318 318 318 318 318 318 318 317 320 323 315 306 308 311 310 310 312 312 312 312 312 312 311 311 310 309 308 308 307 307 306 306 307 307 306 307 306 306 306 306 306 306 306 307 308 310 313
319 319 318 318 318 318 318 318 317 318 319 318 319 319 319 319 319 319 320 319 320 320 319 318 319 319 317 316 317 317 318 320 320 319 317 315 315 318 319 319 319 319 319 319 319 319 319 322 323 314 306 307 309 309 310 310 310 310 310 309 309 308 307 307 306 306 306 305 305 305 305 305 305 305 306 306 306 306 305 306 306 306 306 306 307 308
316 317 316 317 318 317 317 317 317 317 318 318 319 319 319 320 319 319 319 319 319 320 319 320 320 319 317 316 317 318 318 318 318 317 316 314 315 319 320 320 320 320 319 318 317 317 318 319 319 313 307 306 308 308 308 308 307 307 306 306 306 305 305 305 305 305 305 304 305 304 304 304 304 304 304 304 304 304 304 304 305 305 305 306 306 306
315 315 314 316 317 317 318 318 317 318 319 319 318 317 318 319 319 319 319 319 318 319 319 320 319 318 317 319 319 318 318 317 316 315 315 314 314 316 316 315 315 314 314 315 314 313 315 313 310 308 306 306 306 306 306 305 304 303 303 304 304 304 304 303 303 303 303 303 303 303 302 302 302 302 302 302 303 303 303 303 303 304 304 304 305 305
316 316 314 315 316 316 316 316 316 318 320 320 318 316 317 318 319 319 320 319 318 318 318 318 317 315 317 319 319 318 317 316 313 312 315 316 313 313 312 310 310 309 310 313 314 314 314 309 304 304 304 304 304 304 304 304 302 301 302 302 302 302 302 302 302 302 302 301 301 300 300 300 300 301 301 301 301 301 302 302 302 302 303 303 303 304
313 315 314 314 315 314 314 315 316 318 318 318 317 315 315 316 316 317 318 317 317 317 317 317 315 315 317 317 317 316 314 314 313 312 313 313 311 310 312 312 313 313 311 313 314 313 309 304 301 302 303 303 303 303 302 302 301 301 302 303 302 301 300 300 300 300 299 299 298 298 298 298 299 299 300 300 300 301 301 301 301 301 301 301 301 302
312 314 314 314 313 313 314 315 317 316 314 313 314 314 314 314 315 316 316 316 315 315 316 316 315 314 314 313 313 314 313 313 314 313 314 314 313 312 314 315 316 315 311 309 308 307 303 301 301 302 302 301 301 300 300 300 299 299 301 302 302 301 300 299 298 298 297 297 297 297 297 297 297 298 298 299 299 300 300 300 300 300 300 300 300 300
313 313 314 314 313 313 314 314 314 313 311 310 312 313 312 314 315 315 315 316 314 313 313 314 313 312 312 312 313 314 313 313 312 311 312 313 312 312 313 312 309 308 306 303 302 302 301 300 300 300 300 299 299 299 298 298 298 299 300 300 300 300 299 297 297 296 296 296 296 296 297 297 296 297 297 297 298 298 299 299 300 300 300 300 300 300
312 313 314 314 313 314 315 314 313 313 312 310 312 312 311 313 315 315 315 315 313 311 311 310 311 311 311 313 315 314 311 311 311 310 309 309 309 309 310 307 303 301 302 301 300 299 299 299 298 298 298 298 298 298 297 297 298 297 297 297 297 297 296 296 295 295 295 295 294 295 296 296 296 296 296 296 296 296 297 297 298 299 298 299 299 300
311 313 313 313 314 313 313 313 312 312 312 311 312 313 312 313 314 313 314 314 312 311 311 310 310 311 311 313 313 312 310 310 311 309 308 307 307 307 308 306 302 299 300 301 300 299 299 298 297 297 297 297 297 297 297 297 297 296 296 296 295 295 295 295 294 294 294 294 294 294 294 295 295 295 295 295 295 295 296 296 297 297 298 298 298 298
312 313 312 312 313 312 311 312 311 310 310 312 314 312 309 310 312 312 313 313 311 310 311 311 311 311 312 311 310 309 311 311 309 309 308 306 305 304 303 303 302 300 300 300 299 298 298 297 296 296 296 296 297 296 296 296 296 296 296 295 294 294 294 294 293 293 293 293 293 294 294 294 294 294 294 294 295 295 295 296 296 296 297 297 297 297
313 314 313 312 312 311 311 311 311 311 312 315 314 310 307 308 310 310 311 313 313 313 310 309 310 311 310 310 309 308 309 309 308 309 308 306 305 302 300 299 300 300 299 299 298 298 298 297 296 296 296 295 296 296 296 296 296 295 295 294 294 294 294 293 293 292 292 293 293 293 293 293 293 293 294 294 294 294 295 295 295 295 296 297 297 297
314 314 313 312 311 310 310 310 310 311 311 311 310 308 307 309 310 309 310 311 315 319 314 309 311 315 314 313 312 311 308 306 307 308 307 306 305 303 300 299 299 299 298 297 297 297 297 297 296 296 295 295 295 295 295 295 295 295 295 294 294 294 293 292 292 292 292 292 293 293 293 293 292 293 293 294 294 294 295 295 295 295 295 295 296 296
313 313 312 312 310 310 310 309 309 311 308 307 308 307 307 310 312 312 312 310 313 318 317 313 314 317 317 315 312 311 309 306 306 307 307 306 306 303 301 299 299 299 298 296 296 296 296 296 296 295 295 295 294 294 295 295 295 295 294 294 294 294 293 292 292 292 291 292 292 292 292 292 292 292 292 293 293 293 294 294 294 294 295 295 295 295
311 312 312 311 310 311 310 308 309 311 307 306 308 307 306 310 313 312 314 312 310 312 316 316 314 313 316 316 311 308 308 306 305 306 306 306 305 304 302 299 297 297 297 296 296 296 295 295 295 294 294 294 294 294 294 294 294 294 294 294 294 294 293 292 291 291 291 291 291 291 291 291 291 291 291 292 292 292 293 293 293 294 294 294 294 294
309 310 312 312 310 310 309 308 309 310 307 307 311 310 309 311 313 312 314 313 311 311 314 316 313 309 311 313 310 308 308 306 305 306 305 305 304 303 301 298 296 296 296 296 295 295 295 294 294 293 293 293 293 293 293 293 294 293 294 294 294 293 292 292 291 290 290 290 290 290 290 290 290 290 290 291 291 291 292 292 292 292 293 293 293 293
308 307 308 310 310 308 307 307 307 306 306 309 313 312 312 314 314 314 316 314 311 310 311 312 312 309 308 309 309 307 306 305 305 305 304 304 304 300 297 295 295 295 295 294 294 294 294 293 293 292 292 292 292 292 293 293 293 293 294 294 293 293 292 291 290 290 289 289 289 289 289 289 289 289 289 289 290 290 291 291 291 291 292 292 293 293
307 305 305 307 309 308 308 308 307 307 310 313 314 312 313 314 314 314 318 316 310 307 306 306 307 307 307 307 308 307 304 304 305 305 304 303 302 300 297 295 293 293 293 293 293 293 293 292 292 291 291 291 292 292 292 292 293 293 293 293 292 291 291 290 289 289 289 289 289 289 288 288 288 288 288 288 289 289 290 290 290 291 291 291 292 292
306 305 307 308 308 308 307 306 306 308 310 312 313 313 315 316 313 309 309 308 305 304 304 303 304 306 305 304 306 305 304 303 303 302 302 301 299 298 297 293 290 291 292 292 292 292 292 291 291 291 291 291 291 292 292 292 292 292 291 291 290 290 289 289 289 289 289 289 288 288 287 287 287 287 287 287 288 288 289 289 290 290 290 291 292 292
306 306 308 308 308 307 306 305 305 307 308 308 309 309 309 310 309 305 302 302 303 303 302 301 302 303 302 301 303 303 301 300 300 299 297 297 296 295 292 290 289 290 291 291 291 291 291 290 291 291 291 291 291 291 290 289 289 289 288 288 288 288 288 288 288 288 288 287 287 286 286 286 286 286 286 287 287 288 288 289 289 289 290 291 291 292
306 306 307 308 308 307 307 307 307 307 309 309 306 303 301 300 302 302 300 300 300 299 298 297 297 298 297 295 296 298 297 296 296 295 294 293 293 291 288 287 288 289 289 289 290 289 289 290 290 290 290 290 289 289 288 287 286 286 286 286 287 287 287 288 288 287 286 286 285 285 285 284 284 285 285 286 286 287 287 288 289 289 289 290 291 291
307 307 306 307 308 306 307 308 308 309 311 307 300 297 296 295 296 297 296 295 295 296 296 296 294 295 295 292 289 291 293 293 291 291 292 292 289 288 287 287 287 287 287 287 288 287 288 289 288 288 287 286 286 285 285 284 284 284 285 286 286 287 287 287 286 285 284 284 284 283 283 283 283 283 284 284 285 286 287 287 288 288 289 290 291 291
Wind_Speed
5 4 4 6 6 7 7 8 10 7 6 6 5 6 7 7 6 4 4 5 5 8 8 10 11 10 10 12 10 8 8 7 8 8 7 7 7 7 7 7 8 7 8 13 18 21 25 27 27 26 28 29 30 31 32 33 34 35 35 35 36 36 36 35 35 35 36 36 35 34 35 38 39 39 38 38 39 39 39 38 37 36 36 37 37 38
5 7 11 12 10 7 7 8 8 9 10 6 4 5 5 5 5 4 4 4 2 5 6 7 10 11 9 10 10 7 7 7 8 9 8 9 8 7 7 8 9 7 7 10 15 19 23 25 26 25 26 28 30 31 32 33 34 34 35 35 36 35 36 37 37 37 38 39 39 37 38 39 39 38 39 40 41 41 40 39 37 36 36 36 37 38
5 11 18 16 12 9 8 9 9 10 11 7 4 3 2 2 2 4 4 3 2 4 4 4 6 9 9 9 9 7 6 6 7 8 8 9 9 7 7 8 9 8 8 9 11 16 22 25 27 25 25 28 30 32 33 33 34 33 34 35 36 35 36 38 39 39 40 40 41 39 38 38 36 35 38 40 39 39 40 39 37 37 37 37 37 37
6 11 13 11 12 13 10 9 10 9 9 8 6 5 4 3 1 3 4 4 3 3 3 4 5 6 5 6 8 7 7 5 6 8 8 8 8 9 9 8 9 10 10 10 10 12 18 23 24 25 26 28 29 31 31 32 32 33 34 35 35 36 37 38 39 41 41 40 38 38 36 34 32 32 33 34 36 37 37 37 38 39 39 38 37 37
8 4 8 11 11 15 12 10 10 8 7 9 9 9 8 5 4 3 1 3 4 5 5 5 6 6 5 6 8 7 6 5 6 7 8 8 8 8 7 7 9 9 10 10 10 10 13 17 21 25 27 27 27 29 31 31 32 33 34 35 35 36 37 39 39 40 39 36 34 33 31 29 28 28 28 30 34 36 36 38 40 41 40 38 38 38
7 2 10 13 11 13 12 10 11 9 7 8 10 12 10 7 6 3 3 3 3 3 3 2 4 5 4 6 9 7 6 6 5 7 9 10 10 9 8 9 9 9 9 9 11 11 10 14 19 22 23 22 23 28 30 31 32 33 34 34 34 35 36 38 38 38 36 35 33 31 30 28 27 27 29 33 37 37 39 40 41 40 39 38 38 38
2 2 7 12 12 13 12 10 12 11 7 6 5 8 11 8 6 5 4 4 1 3 3 3 5 5 3 4 7 5 5 7 5 6 9 9 10 10 9 10 10 9 9 10 10 9 9 13 16 19 22 22 22 25 27 29 31 32 32 32 33 33 34 36 35 35 35 35 34 32 33 33 31 31 34 37 37 36 37 38 37 37 37 38 38 39
7 8 8 11 11 11 11 9 10 11 8 3 3 1 9 9 8 8 6 4 3 2 3 3 4 4 4 4 7 6 6 9 8 7 9 9 10 10 10 11 11 11 11 10 10 9 9 14 17 20 24 23 20 20 20 23 25 27 29 30 31 32 32 33 33 33 34 35 35 35 35 35 36 36 35 34 32 33 34 34 35 36 36 37 39 40
11 14 12 12 9 7 7 5 9 12 7 1 3 5 3 3 4 6 7 4 2 1 4 5 3 4 5 4 6 7 7 10 11 9 10 11 10 9 10 11 11 11 11 9 8 8 9 15 20 22 22 20 17 15 15 16 18 20 24 26 28 29 30 30 31 32 33 35 36 36 36 36 37 37 34 30 28 31 32 33 35 36 36 37 38 40
6 13 14 12 7 5 6 5 8 11 7 4 4 6 6 4 4 3 4 5 3 1 7 6 4 4 4 3 4 4 5 8 9 9 9 9 10 9 10 11 11 10 9 7 7 8 11 16 17 16 16 15 13 11 12 13 15 17 20 22 25 27 27 27 28 30 32 34 36 36 36 36 35 33 31 28 27 29 29 32 34 35 37 37 38 40
2 8 9 7 6 6 6 5 4 8 9 6 4 5 4 3 4 3 1 3 4 5 8 8 8 5 3 3 5 4 5 8 8 7 7 7 9 10 9 9 9 7 5 5 5 6 8 9 8 7 8 10 10 11 12 13 15 17 18 19 20 22 23 24 25 26 29 32 35 36 36 35 34 31 29 28 29 29 29 31 34 35 36 37 38 39
3 7 5 4 6 6 7 5 3 5 8 6 5 4 3 3 2 3 2 1 3 6 5 8 9 7 5 5 4 4 5 5 6 6 7 8 8 9 10 7 4 2 3 4 4 3 3 3 2 2 5 8 10 11 12 12 13 14 15 16 18 19 20 21 22 24 26 29 32 35 36 36 35 33 31 30 32 32 31 33 33 33 34 34 36 37
4 7 7 4 5 8 8 5 3 4 6 5 4 4 2 1 1 1 1 1 3 5 3 6 8 6 6 9 8 9 8 6 6 6 7 9 9 9 8 5 2 1 2 3 3 3 3 2 1 3 7 8 8 9 10 10 10 11 12 13 16 18 18 19 20 21 24 26 29 32 34 35 36 35 33 33 33 33 33 33 33 32 32 33 34 36
3 6 8 6 3 8 11 9 6 5 8 9 8 7 6 4 2 2 2 0 0 3 4 3 5 3 5 7 10 11 9 8 8 8 9 10 12 11 7 5 4 2 5 4 5 5 4 2 1 4 6 6 7 9 9 8 8 9 10 10 13 16 16 16 18 19 21 24 27 30 32 34 35 35 35 35 34 35 34 33 33 33 33 34 36 38
8 5 9 11 6 9 14 13 11 8 8 9 6 6 6 5 4 3 3 2 2 1 4 2 3 4 4 4 6 8 8 8 8 8 9 10 12 9 4 2 3 1 3 3 4 4 3 2 1 2 4 5 7 8 9 8 7 8 8 8 10 12 12 13 15 16 18 21 23 26 29 32 34 35 35 36 37 36 35 34 34 34 35 36 37 39
10 4 9 12 8 14 16 9 8 8 5 5 4 5 5 4 4 2 1 3 3 1 2 2 2 4 4 5 6 5 6 8 9 8 7 8 8 5 3 4 4 3 2 2 3 3 1 2 2 2 3 5 7 7 7 7 8 8 8 8 8 9 10 10 11 13 15 17 20 23 26 29 31 34 35 36 37 37 37 35 34 35 36 37 37 38
8 4 10 11 6 15 16 9 9 7 5 5 4 6 4 1 5 3 0 2 3 1 3 4 4 4 2 7 9 7 9 11 11 8 5 6 6 3 4 6 5 3 3 4 4 3 2 3 4 5 3 3 6 7 7 7 8 8 8 8 8 8 9 9 9 10 11 13 16 19 23 26 28 31 34 36 37 37 36 36 36 37 37 37 37 37
5 3 9 11 9 12 10 9 7 4 4 7 5 6 4 4 3 3 2 2 3 4 4 5 9 5 2 5 5 3 9 11 9 8 6 6 5 4 6 6 4 4 5 4 3 4 3 3 5 5 3 1 4 7 7 7 8 8 8 8 8 8 8 9 9 10 10 11 13 16 18 22 25 28 32 35 36 36 35 35 37 38 38 38 38 37
5 3 4 9 10 8 6 8 5 3 0 4 6 9 6 1 3 4 4 3 4 5 3 4 7 5 5 8 7 4 8 10 8 7 7 7 6 6 8 5 3 4 5 4 5 5 4 4 5 4 3 3 7 10 9 8 9 8 8 9 8 8 9 10 11 11 12 12 13 14 16 18 21 25 29 32 33 34 35 36 37 37 38 39 38 38
6 4 3 5 7 8 7 6 7 3 1 3 5 7 4 2 4 5 5 3 3 5 3 3 4 4 6 10 11 11 10 9 7 6 6 8 8 9 8 5 6 7 7 6 6 6 5 5 4 4 5 9 14 16 14 12 11 9 9 9 9 9 10 11 12 12 13 13 14 15 16 16 18 21 25 28 30 32 34 36 37 37 38 38 38 38
3 3 4 4 5 8 7 8 12 12 7 5 7 8 6 3 1 1 3 2 2 3 3 2 3 5 6 7 10 12 12 11 9 8 8 6 6 6 6 6 8 8 8 7 6 6 6 4 4 5 7 13 17 19 18 16 14 11 10 10 10 11 11 14 15 14 15 15 16 17 19 19 18 18 21 24 27 29 32 34 35 36 37 37 37 37
4 4 6 5 5 8 8 9 12 14 12 10 9 10 10 7 4 3 3 2 2 2 3 3 5 7 5 5 8 11 10 8 7 7 6 4 4 4 5 7 8 8 8 8 7 7 6 4 3 4 10 18 20 19 18 20 18 14 11 11 11 11 12 15 17 16 17 17 18 19 21 22 21 19 19 21 24 27 30 32 34 34 35 35 36 36
3 3 5 5 4 5 4 2 5 11 14 11 7 7 8 7 6 6 6 5 3 3 2 2 4 5 3 4 6 6 6 5 5 5 5 5 5 4 5 6 7 8 7 7 7 7 6 5 3 5 13 18 19 18 17 19 21 17 14 14 13 13 14 17 17 17 17 18 20 21 23 24 24 22 20 21 23 25 28 30 32 33 33 34 35 36
3 3 5 4 1 1 3 5 3 7 10 6 4 5 8 9 8 6 4 5 6 7 5 4 5 4 3 5 3 3 3 3 3 5 5 2 1 1 0 3 4 5 3 4 4 4 3 2 2 5 10 13 15 17 17 18 21 19 16 18 19 16 16 18 18 18 18 18 21 23 25 27 26 24 22 21 22 24 25 28 30 31 33 34 35 35
3 4 6 5 3 2 1 1 2 5 8 7 8 9 10 11 10 5 2 3 4 7 8 6 5 5 4 3 1 3 2 1 2 2 3 3 3 2 3 3 4 3 2 2 1 2 1 1 2 4 9 11 13 16 17 18 21 20 18 20 21 17 17 20 19 18 18 19 22 25 27 28 27 25 24 23 23 23 24 25 27 29 31 33 34 35
5 5 7 8 8 8 10 9 8 8 9 7 9 13 13 15 15 8 3 4 4 5 7 5 4 7 7 5 4 1 2 2 5 4 1 1 2 4 5 4 3 2 2 3 4 4 3 4 5 7 10 12 13 15 17 18 20 20 19 19 17 16 19 22 21 19 19 20 23 26 28 29 27 26 26 25 25 24 24 24 25 27 29 31 33 34
3 4 7 9 11 12 9 6 6 9 10 9 12 16 16 15 15 8 3 5 6 4 5 5 7 9 11 11 9 6 5 6 7 5 3 2 3 4 3 2 1 2 4 4 5 5 6 6 7 8 11 13 14 16 17 17 19 20 19 18 16 18 21 22 20 20 20 21 23 25 27 28 28 29 29 29 29 28 27 26 25 26 27 28 30 33
3 5 9 9 10 8 3 3 8 13 15 16 18 20 17 15 15 11 8 11 9 6 5 9 8 8 13 16 12 8 8 9 8 6 5 4 5 3 2 3 4 6 7 6 7 7 8 8 7 8 11 14 15 16 16 16 18 18 16 16 17 19 20 19 19 21 21 22 22 23 26 27 28 30 31 31 32 32 31 29 28 27 27 28 29 31
5 7 9 10 10 5 4 5 10 14 15 15 17 19 19 18 18 17 16 13 9 8 10 12 12 13 16 17 15 10 9 8 9 7 5 1 3 2 5 6 7 8 8 8 8 8 8 7 7 8 11 14 14 15 17 17 16 14 14 15 17 18 19 19 21 21 22 22 22 23 24 25 26 27 28 30 31 31 32 31 30 29 28 28 29 30
4 7 8 10 12 8 6 8 11 13 12 12 15 18 19 20 20 20 17 13 11 11 14 12 12 15 15 14 16 11 6 7 8 6 2 4 2 4 6 7 8 8 8 8 8 8 7 7 8 8 9 12 14 16 16 14 12 11 12 13 15 18 19 20 21 22 22 23 23 23 23 23 23 24 25 27 28 29 30 30 29 29 28 28 28 29
4 6 6 9 9 6 4 9 13 14 14 13 14 15 15 16 16 15 14 11 10 11 14 11 9 11 13 12 13 9 2 5 7 5 3 2 2 5 7 8 8 8 8 8 8 8 7 7 7 6 8 12 15 13 11 11 12 13 14 15 17 18 19 19 20 21 21 21 21 21 21 22 22 22 23 24 25 27 28 28 28 28 28 28 27 27
4 4 3 6 7 4 2 5 6 8 12 13 14 14 14 14 14 14 14 14 14 15 15 10 7 11 12 8 8 10 8 9 8 5 4 2 4 7 7 8 8 7 7 8 8 7 7 7 6 6 7 9 10 12 13 13 14 16 17 18 18 18 18 18 18 18 18 18 18 19 20 22 22 23 23 23 24 25 26 27 27 27 28 29 28 27
4 4 3 6 7 5 4 4 1 3 7 8 9 14 17 16 16 15 14 16 16 15 13 11 12 14 9 4 4 11 14 12 7 3 3 4 6 8 8 8 9 8 9 9 7 5 5 5 5 5 6 8 12 13 13 14 16 17 17 17 17 17 17 18 17 16 16 17 18 20 22 23 24 24 25 24 25 25 25 26 26 26 27 28 28 28
6 5 4 5 5 4 4 4 2 1 5 5 6 14 19 20 20 19 17 18 17 14 11 9 8 7 4 4 7 12 12 8 4 4 6 6 6 6 7 9 7 5 6 5 3 3 3 3 5 7 9 11 13 13 13 15 17 18 17 17 17 17 17 18 17 16 17 19 20 22 24 25 26 26 26 26 25 25 26 26 26 26 26 26 27 28
7 6 3 3 3 3 4 4 2 5 5 1 1 8 14 16 18 17 15 15 15 12 10 7 5 5 7 9 9 9 10 7 4 5 7 7 7 7 8 8 4 2 3 1 4 4 5 7 9 12 13 14 14 14 15 16 18 19 18 18 19 19 19 19 17 17 19 21 22 24 26 26 27 27 27 27 27 27 27 26 26 26 26 26 26 27
7 5 3 3 3 2 3 4 5 3 1 1 2 6 9 8 8 8 8 8 7 8 9 10 10 9 8 7 6 7 8 6 5 5 3 2 5 6 6 3 2 5 5 5 5 4 5 8 9 11 12 14 14 15 17 17 18 19 18 18 19 20 21 20 19 19 21 22 24 25 26 26 26 26 27 27 27 28 28 27 27 26 26 26 26 25
7 5 3 3 3 3 4 5 3 3 3 3 6 8 8 7 7 8 7 8 7 10 11 11 11 9 7 7 7 8 6 4 7 6 1 4 2 3 4 5 6 6 5 5 5 6 6 7 9 9 10 12 14 15 16 16 17 17 17 17 18 20 21 22 22 23 23 24 25 26 26 25 25 25 26 26 27 28 28 27 27 26 24 25 26 26
8 7 6 6 4 3 4 3 2 2 5 7 8 6 6 8 9 9 6 8 8 11 11 11 11 10 7 7 9 7 3 3 8 6 1 3 2 5 6 4 5 6 6 6 6 6 6 7 8 8 9 11 14 15 14 14 15 16 16 17 18 19 21 23 24 26 27 27 27 26 25 24 23 23 24 25 26 26 27 27 27 25 23 22 24 26
6 3 4 6 3 4 5 4 5 6 7 6 8 7 8 11 11 11 5 9 7 9 11 11 12 11 10 11 10 5 5 3 9 6 3 3 3 5 5 4 4 5 6 7 7 7 7 8 7 8 11 14 15 14 13 12 14 15 16 17 17 18 20 22 24 26 28 29 29 27 25 23 22 22 22 23 24 24 25 26 26 25 24 22 22 23
5 2 3 6 5 4 6 5 3 4 5 6 8 7 9 13 14 12 4 9 6 9 12 12 12 12 11 10 7 6 6 8 8 5 6 6 4 3 4 5 4 4 5 7 8 9 11 12 13 15 17 16 15 14 13 12 13 14 15 16 16 17 19 21 24 26 27 29 29 28 26 25 24 23 22 22 22 22 23 24 24 24 24 24 23 23
3 3 3 4 4 4 6 5 3 3 5 7 7 7 11 13 12 8 8 7 5 8 9 10 11 11 9 8 6 6 7 6 4 5 6 6 5 3 3 4 4 4 5 7 9 11 12 14 15 15 16 16 14 14 13 12 12 13 13 14 15 17 19 22 24 26 28 29 29 29 28 27 25 25 24 22 22 22 23 23 23 23 23 24 24 24
4 4 2 4 4 3 4 3 3 5 6 6 6 7 9 9 6 7 7 4 5 7 7 8 9 8 6 6 6 6 5 4 6 7 6 5 5 2 3 4 4 4 7 9 10 11 10 11 12 13 15 15 14 14 14 12 12 13 13 13 14 16 19 21 23 25 27 29 29 29 29 28 27 26 25 24 23 24 25 24 23 22 22 22 23 23
6 6 4 5 5 3 3 3 3 5 5 8 11 6 5 5 5 5 4 2 3 6 7 5 6 6 6 5 5 6 7 7 6 6 5 4 4 2 1 1 1 3 6 8 10 11 9 8 9 11 13 14 14 15 14 13 13 14 14 15 16 18 20 22 23 25 26 27 28 29 29 29 28 27 26 25 24 25 26 26 25 24 23 21 22 23
3 5 5 4 4 4 5 6 5 5 6 10 11 8 6 6 5 6 7 4 3 4 6 5 4 6 7 8 8 7 7 6 5 5 5 4 4 3 3 3 2 2 3 5 8 10 9 7 7 8 10 12 14 15 14 13 13 14 15 16 18 21 24 25 26 26 26 26 27 29 29 29 28 26 25 25 25 25 26 26 26 25 24 22 22 22
5 5 5 4 3 3 4 5 5 3 4 6 6 6 6 5 5 7 8 6 4 5 4 5 5 5 6 9 9 6 6 6 6 5 5 5 5 5 3 4 4 3 2 3 6 10 11 10 9 8 9 11 13 13 13 13 13 14 16 17 19 22 26 28 29 28 26 25 25 27 28 29 28 26 25 25 25 25 25 26 26 25 24 23 22 21
4 3 4 3 3 4 3 4 4 2 2 4 2 1 5 5 4 6 8 6 5 5 4 6 7 7 6 7 7 5 5 6 5 4 3 3 3 4 4 3 3 2 2 1 5 7 9 11 12 13 13 14 14 13 13 13 13 14 16 18 20 23 26 28 28 27 25 24 24 24 25 27 27 26 25 25 24 23 23 23 23 24 23 22 22 21
3 3 4 3 3 4 3 3 6 5 5 5 1 4 4 3 2 3 6 6 5 5 5 6 7 7 5 5 6 5 4 4 3 2 2 2 2 2 0 1 1 0 0 2 4 5 7 10 13 15 15 16 17 17 16 14 13 14 16 18 22 25 26 27 27 27 25 25 25 26 27 27 29 29 28 27 25 24 23 22 21 22 21 20 21 21
1 3 4 3 5 5 2 2 4 3 2 2 0 1 1 3 3 4 4 6 6 7 6 5 6 6 5 4 5 5 3 2 2 2 4 3 3 4 4 3 3 3 3 4 4 5 8 9 11 13 15 17 19 19 16 15 15 16 18 21 24 25 26 26 26 25 25 25 25 26 26 27 29 31 32 30 28 25 24 23 21 21 21 20 19 20
4 5 4 3 3 3 2 3 0 4 3 4 4 2 0 3 5 6 6 7 8 8 7 6 5 5 5 5 5 5 3 1 1 1 3 4 4 4 4 5 5 5 6 7 7 9 11 11 12 13 15 16 17 17 17 18 19 20 22 24 24 25 26 26 25 22 22 22 23 23 24 24 25 26 27 29 30 29 28 25 23 23 26 24 20 19
5 4 2 3 3 5 4 5 4 4 1 4 3 2 2 3 7 9 8 8 8 7 7 7 6 5 5 5 5 6 4 2 2 2 2 2 3 4 5 7 7 7 8 10 10 11 12 13 13 13 13 14 16 18 20 22 23 24 24 23 23 24 25 25 24 22 20 21 22 23 25 26 26 25 24 25 27 29 31 30 26 24 25 27 26 22
4 6 5 4 4 4 4 6 6 4 2 2 0 3 3 4 8 10 8 7 6 5 6 7 6 6 6 6 6 7 6 3 3 3 2 2 3 5 8 10 11 11 12 13 13 13 13 13 12 13 14 17 19 21 23 24 24 24 23 23 22 22 20 20 21 21 21 21 22 24 25 26 26 25 24 24 24 25 28 31 32 28 25 24 24 23
Wind_Direction
158 159 200 205 190 195 202 219 230 241 247 219 196 206 209 221 243 235 249 266 200 202 221 214 226 232 232 249 251 249 257 251 245 243 241 239 236 232 229 232 236 237 244 248 243 233 229 232 234 234 234 233 231 230 229 228 228 228 229 227 227 228 226 222 220 219 217 216 218 218 219 222 224 225 224 226 227 228 231 231 230 230 232 232 231 231
159 187 221 215 195 188 193 218 235 244 252 243 206 224 227 219 242 251 255 298 276 225 238 226 231 241 238 245 251 240 235 240 233 232 238 237 238 236 232 237 237 239 248 248 249 244 238 237 239 238 236 233 231 230 229 227 228 229 228 228 229 229 226 224 222 219 218 218 219 218 219 222 224 223 223 225 227 229 231 231 230 230 231 231 231 231
173 207 219 210 194 189 192 206 219 232 241 243 232 239 258 231 263 284 276 325 320 236 259 265 245 248 248 248 255 241 224 235 228 222 226 224 231 237 232 236 239 243 249 246 246 245 242 242 242 241 237 234 234 235 233 230 230 228 228 228 229 230 228 228 225 222 222 223 223 223 224 224 224 225 226 227 229 230 231 231 230 231 231 232 231 231
194 215 207 187 176 181 190 197 204 222 233 233 230 231 246 244 235 273 289 355 339 280 307 323 292 266 259 264 268 247 220 234 244 236 233 225 224 231 228 227 229 231 237 242 246 247 246 245 245 243 240 236 235 235 234 232 229 228 229 230 229 230 231 231 229 227 227 227 227 226 228 228 228 230 230 230 231 231 231 231 231 231 231 231 232 232
215 210 150 151 168 177 181 188 193 211 226 225 223 225 235 228 209 219 261 2 341 317 319 322 303 275 247 252 265 262 242 243 251 250 256 255 246 246 253 246 232 228 230 235 241 245 245 246 246 245 244 241 236 234 235 234 232 232 233 233 232 232 233 233 232 230 228 226 226 226 227 230 231 232 231 230 230 230 230 231 231 232 231 231 232 232
226 197 139 147 164 174 178 186 190 198 218 226 220 218 220 212 198 169 104 59 359 305 267 247 275 275 243 231 240 251 264 265 261 256 258 261 258 255 258 254 245 238 234 233 236 238 240 244 248 250 250 248 241 238 238 237 237 237 237 237 237 236 236 236 234 231 227 224 223 222 220 222 223 226 226 226 227 227 228 230 232 232 232 231 232 232
204 199 159 151 159 169 179 196 189 183 202 229 226 206 203 199 194 189 156 127 169 251 240 199 232 275 306 262 244 238 259 265 251 245 251 253 256 253 248 249 249 246 242 240 242 243 244 247 250 253 255 251 248 248 245 242 240 240 241 242 242 242 241 239 236 232 228 224 223 222 221 222 222 224 228 229 230 230 231 232 233 233 232 232 232 233
153 175 176 158 159 166 180 199 183 174 189 230 341 195 193 196 195 190 174 164 200 260 293 258 226 260 284 263 249 245 265 275 262 249 253 251 250 249 247 246 240 236 236 239 245 247 248 247 246 249 254 254 255 257 253 247 246 247 249 250 249 249 247 244 240 235 230 227 225 224 225 226 227 229 233 234 233 234 234 234 234 233 233 232 232 233
159 174 178 165 158 168 182 177 160 163 165 165 43 63 123 170 180 167 160 184 217 27 279 263 210 244 264 251 246 240 239 262 266 255 252 253 251 246 245 242 233 231 232 230 235 240 241 244 245 246 252 257 260 262 261 259 261 262 260 257 253 251 250 248 244 239 235 231 229 227 227 229 231 234 237 238 237 237 236 235 235 234 233 233 233 233
165 176 174 164 156 182 179 129 140 149 137 160 141 86 70 66 67 98 149 164 138 185 235 222 183 230 264 231 216 224 218 234 253 256 248 251 254 251 245 237 227 227 232 230 231 239 243 246 249 250 251 257 263 267 271 273 274 273 270 264 256 252 252 251 248 243 239 236 232 230 230 232 235 237 239 241 241 239 236 235 236 235 235 235 234 235
160 163 162 166 173 181 158 121 120 128 132 148 120 66 30 34 67 65 59 118 135 223 232 201 186 205 260 238 186 191 218 213 226 255 266 262 258 255 249 236 227 232 254 259 237 229 233 234 237 243 248 263 278 283 283 283 281 280 279 273 265 259 255 253 251 248 245 241 236 234 234 236 238 239 239 239 241 240 237 236 236 236 236 236 236 236
133 149 163 204 191 154 115 97 74 116 143 137 90 62 15 355 36 55 10 85 181 230 220 181 185 190 226 249 213 223 248 215 210 237 260 263 259 256 252 242 231 239 263 251 213 188 180 174 178 240 277 291 300 305 306 302 296 291 287 281 274 270 265 261 259 256 253 248 241 239 237 238 240 241 240 239 240 240 238 238 238 237 236 236 236 236
162 175 177 187 184 156 130 113 93 132 163 149 121 126 115 260 276 70 214 199 209 247 225 172 180 192 229 245 242 252 272 270 254 253 261 264 262 260 256 247 240 197 172 188 194 197 197 177 143 307 307 314 326 336 335 326 319 309 300 292 284 281 279 277 272 267 263 257 250 246 242 241 242 243 243 242 242 242 241 240 240 238 237 236 236 235
158 190 174 156 167 169 156 153 164 173 177 178 171 165 173 190 189 178 193 99 172 266 284 199 177 200 255 249 231 230 247 258 256 256 261 258 252 253 244 227 242 182 144 166 200 217 211 184 30 326 320 341 2 1 355 347 337 325 317 307 294 290 290 287 283 278 272 266 261 255 250 247 245 244 244 244 245 245 244 243 242 241 240 238 238 238
176 194 173 169 173 177 179 182 177 158 167 185 173 159 176 181 181 186 181 182 182 251 298 248 176 195 223 234 204 196 219 241 242 251 262 255 243 247 254 233 256 216 166 184 201 211 204 147 54 343 355 13 14 10 10 6 353 341 336 325 309 307 306 297 290 285 278 273 270 265 258 253 249 247 247 246 247 247 247 246 245 244 243 242 242 243
192 210 173 175 169 171 183 190 153 127 148 189 139 149 198 190 171 188 176 164 143 89 274 210 208 219 216 259 252 227 256 273 273 273 283 282 260 256 306 290 273 267 239 198 172 167 63 57 78 88 65 32 14 13 14 12 5 356 351 343 331 326 324 317 304 294 286 279 275 271 266 261 255 251 250 249 249 249 249 248 248 247 247 246 246 246
192 201 177 173 167 179 182 173 165 161 159 165 154 174 200 105 125 132 272 126 109 225 223 185 239 266 281 279 268 256 266 276 283 276 250 263 263 232 244 250 246 228 183 178 169 129 57 49 103 125 114 49 19 11 6 7 7 0 355 351 347 345 344 340 330 318 306 292 281 274 270 267 262 257 253 252 253 252 251 251 251 251 251 249 249 248
171 172 182 171 173 192 177 143 168 207 148 149 175 171 128 47 98 135 180 140 141 230 236 203 229 231 178 259 280 261 241 241 257 267 241 247 265 247 239 239 230 201 176 171 141 108 101 113 126 136 139 96 9 0 356 357 358 357 355 348 344 351 352 352 348 340 330 315 300 289 279 272 267 263 260 257 256 256 254 253 253 252 252 252 251 250
162 140 207 188 178 173 138 133 167 293 343 144 164 165 146 140 191 169 173 174 176 214 242 214 224 216 192 233 258 247 227 217 220 245 248 247 250 249 247 233 189 180 165 139 124 127 143 147 141 136 98 34 357 348 345 345 343 346 350 343 338 342 349 353 348 342 340 330 317 309 298 285 276 269 266 263 261 258 255 254 255 254 254 254 253 252
168 152 213 199 176 155 148 175 181 181 353 72 135 172 190 202 194 178 172 178 179 195 220 207 209 223 215 224 233 232 229 225 228 243 249 242 233 235 236 206 167 162 150 143 153 166 175 170 140 95 44 15 359 347 340 336 331 329 333 335 334 332 341 350 345 338 339 335 327 320 312 302 291 279 273 269 265 262 258 257 257 256 256 256 255 255
154 187 195 163 162 166 176 202 188 176 166 145 158 183 201 196 154 136 160 161 144 165 214 233 235 251 240 216 217 223 227 230 243 260 265 257 231 223 214 176 161 156 151 159 178 180 177 162 101 62 16 359 355 348 340 334 327 319 318 323 326 324 333 347 346 338 335 334 331 326 321 315 305 293 284 277 271 266 263 261 259 258 258 258 258 258
167 193 182 161 178 187 197 208 193 179 172 174 183 184 187 180 140 138 192 180 146 166 179 197 240 255 245 202 205 218 224 225 234 244 245 221 174 163 172 167 157 154 160 172 175 164 158 149 117 42 0 353 349 342 332 328 325 316 311 316 318 316 328 344 345 336 332 333 331 329 327 321 313 304 295 286 279 273 268 266 262 261 260 258 259 260
129 129 150 157 181 191 223 229 168 175 182 190 202 187 184 184 164 175 193 175 181 214 170 163 236 253 239 204 196 200 207 199 195 197 188 188 184 166 169 172 164 165 170 166 156 156 166 164 135 6 351 344 336 328 318 319 321 313 310 321 320 317 329 340 338 331 329 329 329 330 329 324 318 311 301 291 284 278 273 270 267 265 262 261 262 262
76 116 144 137 129 45 353 8 72 166 183 191 228 204 190 194 190 189 188 169 181 199 186 191 235 258 258 231 202 134 166 185 171 161 146 137 303 314 189 145 151 161 151 131 136 153 172 149 85 347 332 320 314 315 308 308 313 307 308 323 323 320 330 336 333 327 325 325 326 327 326 323 318 312 305 298 291 284 278 274 271 268 265 263 264 263
176 175 155 144 145 133 145 100 118 180 188 194 206 201 194 191 180 160 136 155 182 197 189 187 227 256 259 251 333 63 120 229 261 178 123 70 43 24 22 52 106 127 108 96 57 20 355 291 269 286 298 295 297 303 299 301 307 302 303 319 322 322 331 335 330 324 321 322 322 322 322 319 315 311 307 304 300 294 288 282 276 272 269 267 265 264
179 191 174 169 177 182 187 189 183 182 189 197 193 189 192 188 178 168 162 168 187 201 183 166 210 246 264 283 298 294 161 249 270 243 200 24 90 97 75 62 72 60 0 330 325 321 287 267 273 282 285 283 287 292 291 296 303 298 301 316 321 322 329 331 327 321 319 318 318 318 317 316 314 312 308 305 304 301 297 290 282 277 273 271 269 267
158 203 197 193 198 198 197 191 153 150 167 183 184 186 192 190 181 169 136 174 192 186 188 205 212 233 259 265 258 252 242 255 258 231 202 199 159 115 96 81 21 318 294 293 290 280 274 276 282 284 282 280 284 285 285 292 299 298 304 315 319 322 328 330 327 322 318 316 314 312 312 314 315 314 312 309 308 306 302 297 290 284 280 277 274 272
116 208 207 206 214 207 177 141 141 154 175 186 184 184 186 183 179 179 191 200 189 165 211 231 209 216 250 252 242 231 230 248 263 257 241 200 152 117 26 341 308 286 273 271 267 264 269 277 284 286 282 281 283 284 286 293 298 299 305 314 321 326 330 328 323 320 318 316 313 310 312 315 317 316 315 314 313 311 308 306 301 295 290 285 280 275
139 207 203 201 220 214 146 156 161 167 184 187 182 182 181 179 180 189 204 202 171 171 216 216 194 207 236 247 248 230 202 223 252 254 264 5 80 9 330 313 291 276 267 266 266 265 265 267 271 271 272 278 285 287 289 294 299 305 312 319 325 327 326 323 320 320 319 318 315 315 317 318 319 319 319 318 318 316 314 312 309 305 298 291 285 280
172 196 182 187 213 215 176 170 170 173 183 184 185 185 182 182 185 192 202 196 174 195 220 209 195 215 231 240 252 247 177 186 238 251 322 31 22 302 293 279 269 264 263 264 264 268 267 257 252 255 267 283 291 292 296 304 315 325 330 332 330 327 325 325 323 321 320 319 320 322 324 324 324 324 324 322 321 321 320 318 315 311 305 298 292 286
204 186 156 165 199 225 200 183 182 181 183 186 190 187 181 181 186 194 202 195 185 209 225 214 204 231 242 240 254 271 176 190 241 277 328 340 233 243 252 253 255 258 264 267 262 262 262 258 259 267 276 284 294 309 328 343 347 348 347 344 339 333 331 330 326 324 324 325 328 330 332 333 332 331 329 326 325 325 324 323 319 315 310 305 301 295
188 173 122 142 184 224 218 192 191 177 179 190 192 181 175 178 186 197 203 199 195 203 214 212 207 235 243 233 253 276 264 247 258 279 290 264 209 222 238 245 250 252 254 258 261 265 269 277 294 310 305 308 330 355 7 5 1 358 352 346 342 339 337 336 334 333 334 336 338 340 339 337 335 333 330 328 327 327 326 324 320 316 313 309 307 303
150 152 133 153 183 206 194 184 154 114 161 196 197 180 180 186 192 200 209 211 205 198 199 204 214 228 229 167 214 258 262 269 276 250 221 214 207 216 222 227 236 243 248 256 264 276 284 299 334 5 13 11 15 17 15 10 5 0 354 348 347 345 344 346 348 349 351 350 347 344 341 339 337 335 333 331 329 327 327 325 322 319 316 312 309 305
138 135 141 158 167 179 171 154 108 160 194 209 195 183 185 191 194 198 208 213 210 204 205 213 223 230 216 183 216 243 258 272 259 192 190 197 208 230 246 250 246 225 234 266 324 4 352 359 14 22 28 25 23 22 16 8 1 356 355 355 355 356 357 357 359 2 359 354 349 345 343 342 341 339 338 337 335 332 329 328 325 323 321 316 311 306
143 129 125 136 132 140 139 127 154 223 226 225 187 199 199 200 197 200 212 217 211 206 210 222 229 213 207 215 223 235 251 264 248 223 222 206 202 223 252 274 307 106 146 98 54 41 17 17 15 12 16 19 21 20 14 5 358 354 355 357 356 358 2 3 4 3 356 351 349 346 345 344 342 340 339 338 337 336 334 332 328 325 323 320 315 310
145 139 127 121 126 117 127 166 198 234 311 19 281 235 219 209 190 192 229 243 211 189 196 211 220 216 211 220 230 235 246 270 279 256 236 172 187 201 214 227 88 94 112 111 99 74 38 28 20 16 18 21 21 15 10 5 359 356 356 356 354 354 357 359 359 357 353 349 347 345 344 344 341 339 338 338 337 336 336 335 332 330 327 322 318 314
154 150 142 154 179 146 147 195 221 353 349 232 233 232 210 190 171 172 221 249 210 187 196 206 219 227 221 219 234 239 241 283 290 273 68 66 90 130 126 130 124 113 112 114 107 92 70 45 35 35 31 29 26 17 9 2 358 359 359 359 357 355 355 356 354 351 347 345 343 343 343 343 340 338 337 336 335 333 333 333 332 334 333 326 321 318
168 172 172 183 191 127 129 183 197 237 243 221 219 224 180 163 164 160 193 245 227 197 197 201 212 223 217 213 228 229 197 247 265 254 144 61 68 96 92 93 108 107 100 92 79 68 55 42 48 55 44 35 29 19 10 2 359 1 3 2 1 359 356 354 351 347 343 341 339 340 341 342 341 339 337 335 333 330 330 330 330 332 332 327 321 319
154 160 157 172 181 135 149 179 184 211 237 217 200 201 163 151 145 132 170 249 230 182 188 200 207 212 211 218 220 183 130 218 253 242 171 153 151 125 113 95 82 79 70 60 47 34 27 28 41 42 31 28 24 15 10 6 3 2 3 3 1 359 356 351 346 343 340 338 338 338 339 340 340 338 337 335 333 331 329 329 329 330 330 327 322 319
141 135 151 179 196 173 174 197 206 223 242 218 202 197 161 143 127 119 185 254 221 175 183 188 196 208 210 211 201 154 164 222 243 223 176 163 144 118 116 110 100 82 62 45 30 21 18 20 22 20 16 14 12 8 7 6 5 4 0 358 358 357 353 347 343 341 339 338 339 339 340 340 339 338 337 336 335 334 332 331 330 331 331 328 325 321
148 177 179 174 180 173 179 207 252 261 236 216 205 185 152 133 123 146 207 233 203 188 187 175 187 208 206 191 183 182 203 214 186 157 159 140 103 65 46 59 73 73 53 34 22 17 16 18 18 12 6 4 2 3 3 359 359 359 355 352 353 352 348 345 343 342 341 340 340 340 339 339 338 337 338 339 339 336 334 334 332 329 329 327 325 322
161 174 182 160 162 160 168 191 260 274 241 188 162 167 157 142 156 203 209 194 167 170 170 174 186 192 179 175 183 184 175 141 121 123 124 120 120 110 18 20 28 27 22 19 18 19 16 12 10 4 359 358 357 357 357 352 349 349 346 342 342 343 343 343 343 341 339 339 338 338 338 337 336 336 337 339 341 336 334 335 333 329 328 325 323 320
167 166 191 190 171 136 133 167 222 256 226 149 132 152 195 191 194 196 176 171 178 153 140 156 177 166 148 142 150 151 137 125 126 127 129 141 158 170 258 318 326 349 359 2 4 7 9 6 3 357 352 351 350 350 350 344 339 338 335 332 334 337 338 338 339 338 336 336 335 334 334 333 333 335 335 337 339 336 332 332 332 330 329 327 322 318
184 177 191 198 176 150 165 191 215 221 188 155 147 167 205 206 181 159 147 153 200 174 145 145 172 180 161 143 143 149 141 137 151 157 157 171 185 205 258 270 249 269 328 352 355 356 357 357 351 347 347 347 346 345 342 337 330 326 325 327 331 334 335 335 335 334 333 333 332 331 331 330 328 330 332 334 335 333 330 330 331 329 328 327 323 317
215 196 180 184 195 188 182 200 227 229 194 192 190 175 168 165 154 148 142 142 186 209 174 147 162 176 156 143 143 149 152 161 174 176 170 175 179 185 218 244 234 227 252 344 353 350 348 347 347 344 340 339 339 337 336 334 326 316 316 324 329 330 332 332 332 330 328 328 327 328 328 326 325 327 329 330 331 329 326 327 328 325 325 324 321 316
233 180 143 153 215 259 255 195 178 172 198 217 245 93 131 150 155 146 136 142 184 194 159 145 157 158 150 143 138 143 168 173 178 196 202 197 192 178 176 203 224 205 193 312 347 351 349 347 345 338 331 330 333 332 329 326 321 313 316 323 327 327 328 328 327 325 323 323 322 324 325 323 322 324 325 324 325 324 322 323 321 318 318 318 317 313
272 174 151 155 182 208 242 190 165 177 210 210 179 41 68 92 98 137 144 157 172 152 127 134 139 132 125 121 123 142 172 164 162 249 294 314 310 311 127 153 265 250 250 333 352 2 356 346 337 330 325 325 328 327 323 322 321 320 322 324 324 324 325 324 323 321 320 321 322 324 325 325 323 323 323 322 322 320 318 317 315 310 309 310 311 309
233 173 176 190 182 178 215 234 171 164 235 239 133 60 116 101 62 63 105 124 121 109 106 116 118 115 109 107 121 135 142 143 173 287 322 331 332 336 345 351 347 348 356 2 4 356 346 336 326 320 318 318 323 327 327 327 328 328 325 323 323 323 322 320 319 317 315 317 319 320 321 320 320 321 320 319 319 317 314 312 311 306 302 301 302 301
143 170 179 164 185 213 284 292 88 66 12 319 327 347 151 131 105 87 86 96 100 100 99 93 91 105 118 123 131 125 93 10 265 14 352 336 337 345 341 344 352 356 357 356 348 341 335 327 319 315 312 315 324 330 330 329 328 326 323 322 323 324 321 318 316 313 312 314 316 316 316 315 314 314 313 313 314 314 311 309 308 305 302 301 300 296
135 169 163 120 183 236 240 214 178 123 150 274 306 24 67 117 112 104 96 93 96 104 107 97 80 74 80 86 100 107 89 21 2 52 41 330 324 331 340 350 354 351 349 347 340 336 334 329 324 320 320 324 328 327 324 324 323 322 323 325 326 325 321 318 316 314 314 317 318 317 317 316 314 312 311 309 310 311 310 309 307 304 301 301 301 298
175 183 176 159 190 224 214 195 178 142 149 248 284 83 87 101 105 106 105 100 96 97 101 97 84 66 50 43 55 77 83 54 32 59 69 349 342 353 359 358 352 344 342 343 341 338 336 336 336 334 331 328 324 321 321 320 320 323 326 328 327 325 322 319 319 318 318 318 318 317 316 313 312 311 310 309 309 310 309 309 309 307 302 300 301 301